Location: Newark
(25.4297°S, 49.2719°W)
Time: 17:26:06
(UTC+00:00)

N. Korean satellite - Visible Passes

Search period start: 23 June 2021 00:00
Search period end: 03 July 2021 00:00
Orbit: 450 x 499 km, 97.2° (Epoch: 22 June)

Date Brightness Start Highest point End Pass type
(mag) Time Alt. Az. Time Alt. Az. Time Alt. Az.
23 Jun 8.5 08:08:28 10° N 08:09:53 22° N 08:09:53 22° N visible
23 Jun 9.4 21:16:27 10° SSW 21:18:39 16° WSW 21:20:50 10° WNW visible
24 Jun 9.3 07:41:25 10° NNE 07:42:16 16° NE 07:42:16 16° NE visible
25 Jun 8.9 08:48:18 10° NW 08:48:50 12° NW 08:48:50 12° NW visible
26 Jun 8.5 08:19:58 10° N 08:21:13 20° NNW 08:21:13 20° NNW visible
26 Jun 9.7 21:28:54 10° SW 21:29:51 11° WSW 21:30:48 10° W visible
27 Jun 9.0 07:52:33 10° NNE 07:53:37 18° NNE 07:53:37 18° NNE visible
27 Jun 8.7 20:59:46 10° SSW 21:02:44 27° WSW 21:05:39 10° NW visible
28 Jun 9.9 07:25:58 10° NE 07:25:59 10° NE 07:25:59 10° NE visible
29 Jun 8.7 08:31:34 10° NNW 08:32:32 16° NNW 08:32:32 16° NNW visible
30 Jun 8.8 08:03:48 10° N 08:04:54 19° N 08:04:54 19° N visible
30 Jun 9.3 21:11:27 10° SSW 21:13:54 18° WSW 21:16:20 10° WNW visible
01 Jul 9.6 07:36:50 10° NE 07:37:16 13° NE 07:37:16 13° NE visible
02 Jul 8.9 08:43:20 10° NW 08:43:47 12° NW 08:43:47 12° NW visible
